Regional Weather Roundup
Issued by NWS Jackson, KY

Home | Current Version | Previous Version | Text Only | Print | Product List | Glossary Off
Versions: 1 2 3 4 5 6 7 8 9 10 11 12 13 14 15 16 17 18 19 20 21 22 23 24 25 26 27 28 29 30 31 32 33 34 35 36 37 38 39 40 41 42 43 44 45 46 47 48 49 50

000
ASUS43 KJKL 191110
RWRJKL

EAST KENTUCKY HOURLY WEATHER ROUNDUP
NATIONAL WEATHER SERVICE JACKSON KY
700 AM EDT SAT APR 19 2014

NOTE: "FAIR" INDICATES FEW OR NO CLOUDS BELOW 12,000 FEET WITH
NO SIGNIFICANT WEATHER AND/OR OBSTRUCTIONS TO VISIBILITY.

* THESE REPORTS ARE NOT UNDER NWS QUALITY CONTROL AND MAY NOT
  REPORT WEATHER SUCH AS PRECIPITATION AND FOG.

KYZ079-080-083-085-087-088-110-112-115-119-120-191200
...EASTERN KENTUCKY...

CITY           SKY/WX    TMP DP  RH WIND       PRES   REMARKS
JACKSON        CLEAR     54  34  46 VRB5      30.20R
LONDON         MOCLDY    53  36  52 N7        30.18S
SOMERSET*      CLEAR     46  36  66 CALM      30.20S
MONTICELLO*    PTCLDY    40  39  96 CALM      30.20F
MIDDLESBORO*   CLOUDY    44  41  91 CALM      30.17S
HARLAN APT*    CLOUDY    46  39  76 N6        30.18R
BLACK MTN*       N/A     48  32  53 NE5         N/A
PIKEVILLE APT* CLEAR     52  34  50 N7        30.19R
BIG SANDY*     MOSUNNY   51  36  56 NE6       30.19S
MOREHEAD APT*  SUNNY     52  36  54 N6        30.24S
$$

KYZ035-036-041-042-044-050-067-078-099-191200
...CENTRAL KENTUCKY...

CITY           SKY/WX    TMP DP  RH WIND       PRES   REMARKS
MT STERLING*   CLEAR     46  37  71 NE5       30.23S
FLEMING/MASON* CLEAR     48  39  71 NE7       30.25R
DANVILLE*      PTCLDY    45  36  70 N6        30.23R
LEXINGTON      PTCLDY    47  38  71 NE8       30.23R
FRANKFORT      PTCLDY    48  38  68 N6        30.22S
$$

KYZ091>093-OHZ055-061-077-WVZ005-015-034-035-042-191200
...SOUTHERN OHIO/WEST VIRGINIA...

CITY           SKY/WX    TMP DP  RH WIND       PRES   REMARKS
COVINGTON      PTCLDY    47  37  68 N6        30.26R
COLUMBUS       PTCLDY    48  38  68 VRB7      30.30R
DAYTON         PTCLDY    44  40  85 NE10      30.31R
WILMINGTON     CLEAR     44  40  85 NE13      30.27R
HUNTINGTON     PTCLDY    47  40  76 N5        30.21R
CHARLESTON     MOCLDY    46  41  82 CALM      30.21R
PINEVILLE*     CLOUDY    44  41  89 MISG      30.24S
BECKLEY        CLOUDY    46  32  58 CALM      30.21R
BLUEFIELD      CLOUDY    47  33  58 E6        30.20R
$$

VAZ002-007-008-TNZ017-027-036-066-071-191200
...SOUTHWEST VIRGINIA/EAST TENNESSEE...

CITY           SKY/WX    TMP DP  RH WIND       PRES   REMARKS
WISE*          CLOUDY    50  34  53 NE3       30.20R
ABINGDON*      CLOUDY    54  32  43 E7        30.16R
BRISTOL        CLOUDY    50  35  56 CALM      30.15R
KNOXVILLE      CLOUDY    52  41  66 E5        30.14R
OAK RIDGE      CLOUDY    50  43  77 CALM      30.15R
CROSSVILLE     CLOUDY    52  37  56 NE5       30.17R
NASHVILLE      PTCLDY    50  45  83 CALM      30.18S
$$

...KEY TO REMARKS...
VSB - VISIBILITY IN MILES
WCI - WIND CHILL INDEX
HX  - HEAT INDEX

$$



USA.gov is the U.S. government's official web portal to all federal, state and local government web resources and services.